Showing default

HAWK-11C, 62381

Orbit data source: Space-Track

HAWK-11C, 62381 is a payload satellite owned by HawkEye 360 (US) in LEO that was launched on Sat, 21 Dec 2024 UTC via an FALCON 9 launch vehicle from the Air Force Western Test Range (AFWTR). Payload-class satellites include a variety of spacecraft equipped with specific instruments for various scientific and technological missions. These include communications satellites like Starlink; space stations such as the ISS; scientific satellites like the Hubble; Earth observation satellites from companies like Planet Labs, Umbra, and HawkEye 360; GPS; miniature CubeSats for education and research; and military/defense satellites.

Loading next visibility...
Identifier
62381, 2024-247E
Orbit
LEO
Country
Flag of USUS
Related business
Manufacturer
UTIAS-SFL
Mission
Operational Commercial Sigint
Bus & Motor
HAWK2G, Unknown motor
Mass
31 kg wet, 30 kg dry
Launch date (UTC)
2024-12-21 (1 year ago)
Launch vehicle
FALCON 9
Launch site
Air Force Western Test Range (AFWTR)
Object type
Payload
Rocket body
Debris
Shape & HBR
Box + 2 Pan, 1.0 m
Radar Cross Section
0.240 m², Medium (>0.1 m² and < 1m²)

Expand to show TLE details & history
Last TLE update: 10 hours ago

TLE from 10 hours ago
0 HAWK-11C
1 62381U 24247E   25346.95212570  .00011277  00000-0  42626-3 0  9991
2 62381  45.0021 227.6494 0005261 190.3471 169.7304 15.27124875 54503
Epoch: 2025-12-12T22:51Z
TLE epoch observation values (Epoch: 2025-12-12T22:51:03.660Z)
Latitude
-0.00004°
Longitude
162.99774°
Altitude
487.963 km
Speed
7.621 km/s
True Right ascension
15h 10m 35s
True Declination
0° 00' 00"
Sunlit
Object was in daylight at epoch
Visualization orbit readout
Latitude
Unknown
Longitude
Unknown
Altitude
Unknown
Speed
Unknown
Apparent Right ascension
Unknown
Apparent Declination
Unknown
Sunlit
N/A
Visualization observer readout
Local Sidereal Time
07:35:02
Azimuth
Unknown
Elevation
Unknown
Doppler factor
Unknown
Orbital elements
Apogee altitude
489.632 km
Perigee altitude
482.41 km
Semi-major axis
6,864.158 km
Eccentricity
0.00053
Inclination
45.0021°
RAAN
227.6494°
Arg. of periapsis
190.3471°
True anomaly
169.74114°
Mean anomaly
169.7304°
Eccentric anomaly
169.73577°
Mean motion
3.81647 °/min
Orbital period
94.33 mins
BSTAR
0.00042626
Loading maneuver chart data...
Computing Atmospheric mass density...
Loading historical data...
Loading historical data...
Loading historical data...
Loading historical data...
Loading historical data...
Loading historical data...
Loading historical data...

Documentation

Showing up to 5 results
|